Time,TemperatureF,DewpointF,PressureIn,WindDirection,WindDirectionDegrees,WindSpeedMPH,WindSpeedGustMPH,Humidity,HourlyPrecipIn,Conditions,Clouds,dailyrainin,SoftwareType,DateUTC
2013-01-19 00:00:00,22.4,6.2,30.42,South,171,0.0,1.0,49,0.00,,,0.00,WeatherCatV1.11B39,2013-01-19 05:00:00,
2013-01-19 00:01:00,22.4,6.2,30.41,SSE,158,0.0,1.0,49,0.00,,,0.00,WeatherCatV1.11B39,2013-01-19 05:01:00,
2013-01-19 00:02:00,22.4,6.6,30.41,SSE,158,0.0,1.0,50,0.00,,,0.00,WeatherCatV1.11B39,2013-01-19 05:02:00,
2013-01-19 00:03:00,22.5,6.7,30.41,SE,145,0.0,1.0,50,0.00,,,0.00,WeatherCatV1.11B39,2013-01-19 05:03:00,
2013-01-19 00:08:00,22.6,6.4,30.41,SSE,165,1.0,4.0,49,0.00,,,0.00,WeatherCatV1.11B39,2013-01-19 05:08:00,
2013-01-19 00:13:00,22.8,6.5,30.41,SE,142,0.0,2.0,49,0.00,,,0.00,WeatherCatV1.11B39,2013-01-19 05:13:00,
2013-01-19 00:18:00,23.0,6.3,30.40,SW,233,0.0,1.0,48,0.00,,,0.00,WeatherCatV1.11B39,2013-01-19 05:18:00,
2013-01-19 00:23:00,23.1,6.4,30.40,SW,219,0.0,1.0,48,0.00,,,0.00,WeatherCatV1.11B39,2013-01-19 05:23:00,
2013-01-19 00:28:00,23.1,6.8,30.40,SW,221,1.0,2.0,49,0.00,,,0.00,WeatherCatV1.11B39,2013-01-19 05:28:00,
2013-01-19 00:33:00,23.2,6.5,30.40,SSE,153,0.0,3.0,48,0.00,,,0.00,WeatherCatV1.11B39,2013-01-19 05:33:00,
2013-01-19 00:38:00,23.2,6.5,30.40,SSW,210,1.0,3.0,48,0.00,,,0.00,WeatherCatV1.11B39,2013-01-19 05:38:00,
2013-01-19 00:43:00,23.2,6.5,30.40,SW,217,0.0,4.0,48,0.00,,,0.00,WeatherCatV1.11B39,2013-01-19 05:43:00,
2013-01-19 00:48:00,23.3,6.5,30.40,WSW,249,0.0,1.0,48,0.00,,,0.00,WeatherCatV1.11B39,2013-01-19 05:48:00,
2013-01-19 00:53:00,23.3,7.0,30.40,West,274,0.0,2.0,49,0.00,,,0.00,WeatherCatV1.11B39,2013-01-19 05:53:00,
2013-01-19 00:58:00,23.4,7.5,30.40,South,179,0.0,1.0,50,0.00,,,0.00,WeatherCatV1.11B39,2013-01-19 05:58:00,
2013-01-19 01:03:00,23.4,7.5,30.39,SSE,160,0.0,1.0,50,0.00,,,0.00,WeatherCatV1.11B39,2013-01-19 06:03:00,
2013-01-19 01:08:00,23.4,7.1,30.39,SSW,207,2.0,2.0,49,0.00,,,0.00,WeatherCatV1.11B39,2013-01-19 06:08:00,
2013-01-19 01:13:00,23.5,7.6,30.39,SW,221,0.0,1.0,50,0.00,,,0.00,WeatherCatV1.11B39,2013-01-19 06:13:00,
2013-01-19 01:18:00,23.6,7.3,30.38,South,176,0.0,2.0,49,0.00,,,0.00,WeatherCatV1.11B39,2013-01-19 06:18:00,
2013-01-19 01:23:00,23.7,7.4,30.36,WSW,246,2.0,3.0,49,0.00,,,0.00,WeatherCatV1.11B39,2013-01-19 06:23:00,
2013-01-19 01:28:00,23.9,7.1,30.37,SSW,210,1.0,7.0,48,0.00,,,0.00,WeatherCatV1.11B39,2013-01-19 06:28:00,
2013-01-19 01:33:00,24.0,7.2,30.38,WSW,240,0.0,4.0,48,0.00,,,0.00,WeatherCatV1.11B39,2013-01-19 06:33:00,
2013-01-19 01:38:00,24.1,7.7,30.38,WSW,255,0.0,2.0,49,0.00,,,0.00,WeatherCatV1.11B39,2013-01-19 06:38:00,
2013-01-19 01:43:00,24.2,7.8,30.37,South,169,0.0,5.0,49,0.00,,,0.00,WeatherCatV1.11B39,2013-01-19 06:43:00,
2013-01-19 01:48:00,24.3,7.9,30.37,SW,222,0.0,2.0,49,0.00,,,0.00,WeatherCatV1.11B39,2013-01-19 06:48:00,
2013-01-19 01:53:00,24.3,8.4,30.37,SW,226,2.0,2.0,50,0.00,,,0.00,WeatherCatV1.11B39,2013-01-19 06:53:00,
2013-01-19 01:58:00,24.4,8.5,30.37,SW,221,1.0,5.0,50,0.00,,,0.00,WeatherCatV1.11B39,2013-01-19 06:58:00,
2013-01-19 02:03:00,24.4,8.9,30.37,SW,217,2.0,3.0,51,0.00,,,0.00,WeatherCatV1.11B39,2013-01-19 07:03:00,
2013-01-19 02:08:00,24.5,9.4,30.36,South,176,1.0,3.0,52,0.00,,,0.00,WeatherCatV1.11B39,2013-01-19 07:08:00,
2013-01-19 02:13:00,24.6,9.5,30.35,SSE,162,1.0,2.0,52,0.00,,,0.00,WeatherCatV1.11B39,2013-01-19 07:13:00,
2013-01-19 02:18:00,24.7,9.6,30.36,SSE,148,1.0,5.0,52,0.00,,,0.00,WeatherCatV1.11B39,2013-01-19 07:18:00,
2013-01-19 02:23:00,24.9,10.2,30.35,SSE,163,0.0,1.0,53,0.00,,,0.00,WeatherCatV1.11B39,2013-01-19 07:23:00,
2013-01-19 02:28:00,25.1,10.0,30.35,SSW,209,1.0,3.0,52,0.00,,,0.00,WeatherCatV1.11B39,2013-01-19 07:28:00,
2013-01-19 02:33:00,25.3,10.6,30.34,South,190,0.0,2.0,53,0.00,,,0.00,WeatherCatV1.11B39,2013-01-19 07:33:00,
2013-01-19 02:38:00,25.4,10.7,30.34,SSW,205,1.0,4.0,53,0.00,,,0.00,WeatherCatV1.11B39,2013-01-19 07:38:00,
2013-01-19 02:43:00,25.6,11.3,30.33,South,188,0.0,4.0,54,0.00,,,0.00,WeatherCatV1.11B39,2013-01-19 07:43:00,
2013-01-19 02:48:00,25.8,11.5,30.33,SSW,195,2.0,2.0,54,0.00,,,0.00,WeatherCatV1.11B39,2013-01-19 07:48:00,
2013-01-19 02:53:00,26.0,11.7,30.33,WSW,245,3.0,4.0,54,0.00,,,0.00,WeatherCatV1.11B39,2013-01-19 07:53:00,
2013-01-19 02:58:00,26.1,11.8,30.32,WSW,237,2.0,2.0,54,0.00,,,0.00,WeatherCatV1.11B39,2013-01-19 07:58:00,
2013-01-19 03:03:00,26.2,12.3,30.32,West,263,1.0,2.0,55,0.00,,,0.00,WeatherCatV1.11B39,2013-01-19 08:03:00,
2013-01-19 03:08:00,26.2,12.3,30.32,South,170,1.0,3.0,55,0.00,,,0.00,WeatherCatV1.11B39,2013-01-19 08:08:00,
2013-01-19 03:13:00,26.3,12.4,30.32,WSW,243,0.0,1.0,55,0.00,,,0.00,WeatherCatV1.11B39,2013-01-19 08:13:00,
2013-01-19 03:18:00,26.3,12.8,30.32,WSW,252,0.0,5.0,56,0.00,,,0.00,WeatherCatV1.11B39,2013-01-19 08:18:00,
2013-01-19 03:23:00,26.6,13.0,30.32,SW,226,1.0,3.0,56,0.00,,,0.00,WeatherCatV1.11B39,2013-01-19 08:23:00,
2013-01-19 03:28:00,26.7,13.5,30.32,SW,215,1.0,2.0,57,0.00,,,0.00,WeatherCatV1.11B39,2013-01-19 08:28:00,
2013-01-19 03:33:00,26.9,13.7,30.32,NNE,26,0.0,5.0,57,0.00,,,0.00,WeatherCatV1.11B39,2013-01-19 08:33:00,
2013-01-19 03:38:00,27.1,13.9,30.32,SW,215,0.0,6.0,57,0.00,,,0.00,WeatherCatV1.11B39,2013-01-19 08:38:00,
2013-01-19 03:43:00,27.2,14.0,30.31,SE,141,0.0,2.0,57,0.00,,,0.00,WeatherCatV1.11B39,2013-01-19 08:43:00,
2013-01-19 03:48:00,27.3,14.1,30.31,SW,222,4.0,4.0,57,0.00,,,0.00,WeatherCatV1.11B39,2013-01-19 08:48:00,
2013-01-19 03:53:00,27.4,14.6,30.30,West,277,0.0,2.0,58,0.00,,,0.00,WeatherCatV1.11B39,2013-01-19 08:53:00,
2013-01-19 03:58:00,27.5,14.7,30.30,SSW,195,1.0,5.0,58,0.00,,,0.00,WeatherCatV1.11B39,2013-01-19 08:58:00,
2013-01-19 04:03:00,27.7,15.3,30.30,WSW,245,6.0,6.0,59,0.00,,,0.00,WeatherCatV1.11B39,2013-01-19 09:03:00,
2013-01-19 04:08:00,27.8,15.4,30.30,SSW,193,0.0,2.0,59,0.00,,,0.00,WeatherCatV1.11B39,2013-01-19 09:08:00,
2013-01-19 04:13:00,27.9,15.5,30.30,SSW,194,3.0,3.0,59,0.00,,,0.00,WeatherCatV1.11B39,2013-01-19 09:13:00,
2013-01-19 04:18:00,28.0,15.9,30.29,SW,216,2.0,5.0,60,0.00,,,0.00,WeatherCatV1.11B39,2013-01-19 09:18:00,
2013-01-19 04:23:00,28.0,15.9,30.28,SW,215,3.0,5.0,60,0.00,,,0.00,WeatherCatV1.11B39,2013-01-19 09:23:00,
2013-01-19 04:28:00,28.0,16.3,30.28,SSW,205,0.0,6.0,61,0.00,,,0.00,WeatherCatV1.11B39,2013-01-19 09:28:00,
2013-01-19 04:33:00,27.9,16.2,30.28,SSE,152,1.0,4.0,61,0.00,,,0.00,WeatherCatV1.11B39,2013-01-19 09:33:00,
2013-01-19 04:38:00,28.0,16.7,30.27,NNW,329,0.0,4.0,62,0.00,,,0.00,WeatherCatV1.11B39,2013-01-19 09:38:00,
2013-01-19 04:43:00,28.0,16.7,30.27,South,173,4.0,7.0,62,0.00,,,0.00,WeatherCatV1.11B39,2013-01-19 09:43:00,
2013-01-19 04:48:00,28.2,16.9,30.27,SSW,193,0.0,1.0,62,0.00,,,0.00,WeatherCatV1.11B39,2013-01-19 09:48:00,
2013-01-19 04:53:00,28.3,17.3,30.27,SSE,160,0.0,1.0,63,0.00,,,0.00,WeatherCatV1.11B39,2013-01-19 09:53:00,
2013-01-19 04:58:00,28.4,17.4,30.26,WSW,255,0.0,3.0,63,0.00,,,0.00,WeatherCatV1.11B39,2013-01-19 09:58:00,
2013-01-19 05:03:00,28.7,17.7,30.26,SW,221,2.0,4.0,63,0.00,,,0.00,WeatherCatV1.11B39,2013-01-19 10:03:00,
2013-01-19 05:08:00,28.8,17.8,30.26,SW,232,1.0,2.0,63,0.00,,,0.00,WeatherCatV1.11B39,2013-01-19 10:08:00,
2013-01-19 05:13:00,28.9,17.9,30.26,SW,217,0.0,5.0,63,0.00,,,0.00,WeatherCatV1.11B39,2013-01-19 10:13:00,
2013-01-19 05:18:00,29.0,18.4,30.26,NNE,32,1.0,3.0,64,0.00,,,0.00,WeatherCatV1.11B39,2013-01-19 10:18:00,
2013-01-19 05:23:00,29.1,18.5,30.26,WSW,245,2.0,3.0,64,0.00,,,0.00,WeatherCatV1.11B39,2013-01-19 10:23:00,
2013-01-19 05:28:00,29.2,18.6,30.25,SSE,158,2.0,2.0,64,0.00,,,0.00,WeatherCatV1.11B39,2013-01-19 10:28:00,
2013-01-19 05:33:00,29.4,18.8,30.25,SW,235,2.0,5.0,64,0.00,,,0.00,WeatherCatV1.11B39,2013-01-19 10:33:00,
2013-01-19 05:38:00,29.4,18.8,30.25,SSW,212,2.0,2.0,64,0.00,,,0.00,WeatherCatV1.11B39,2013-01-19 10:38:00,
2013-01-19 05:43:00,29.6,18.9,30.25,West,270,0.0,7.0,64,0.00,,,0.00,WeatherCatV1.11B39,2013-01-19 10:43:00,
2013-01-19 05:48:00,29.7,19.4,30.24,SSE,159,0.0,1.0,65,0.00,,,0.00,WeatherCatV1.11B39,2013-01-19 10:48:00,
2013-01-19 05:53:00,29.8,19.1,30.24,West,260,3.0,7.0,64,0.00,,,0.00,WeatherCatV1.11B39,2013-01-19 10:53:00,
2013-01-19 05:58:00,30.0,19.7,30.24,WSW,248,3.0,4.0,65,0.00,,,0.00,WeatherCatV1.11B39,2013-01-19 10:58:00,
2013-01-19 06:03:00,30.1,19.8,30.24,WSW,239,3.0,6.0,65,0.00,,,0.00,WeatherCatV1.11B39,2013-01-19 11:03:00,
2013-01-19 06:08:00,30.3,20.0,30.24,SW,214,0.0,5.0,65,0.00,,,0.00,WeatherCatV1.11B39,2013-01-19 11:08:00,
2013-01-19 06:13:00,30.4,20.1,30.23,South,184,0.0,1.0,65,0.00,,,0.00,WeatherCatV1.11B39,2013-01-19 11:13:00,
2013-01-19 06:15:00,30.5,20.2,30.23,SW,226,1.0,6.0,65,0.00,,,0.00,WeatherCatV1.11B39,2013-01-19 11:15:00,
2013-01-19 06:20:00,30.6,20.3,30.25,West,269,1.0,2.0,65,0.00,,,0.00,WeatherCatV1.11B39,2013-01-19 11:20:00,
2013-01-19 06:25:00,30.7,20.4,30.24,SW,229,1.0,6.0,65,0.00,,,0.00,WeatherCatV1.11B39,2013-01-19 11:25:00,
2013-01-19 06:30:00,30.8,20.4,30.24,SW,236,1.0,2.0,65,0.00,,,0.00,WeatherCatV1.11B39,2013-01-19 11:30:00,
2013-01-19 06:35:00,30.8,20.4,30.23,SW,215,1.0,4.0,65,0.00,,,0.00,WeatherCatV1.11B39,2013-01-19 11:35:00,
2013-01-19 06:40:00,30.9,20.5,30.23,SW,230,1.0,2.0,65,0.00,,,0.00,WeatherCatV1.11B39,2013-01-19 11:40:00,
2013-01-19 06:45:00,30.9,20.5,30.23,SW,219,2.0,3.0,65,0.00,,,0.00,WeatherCatV1.11B39,2013-01-19 11:45:00,
2013-01-19 06:50:00,30.9,20.5,30.22,SW,218,1.0,4.0,65,0.00,,,0.00,WeatherCatV1.11B39,2013-01-19 11:50:00,
2013-01-19 06:55:00,31.0,20.6,30.22,SW,233,1.0,5.0,65,0.00,,,0.00,WeatherCatV1.11B39,2013-01-19 11:55:00,
2013-01-19 07:00:00,31.2,20.8,30.22,SW,227,2.0,7.0,65,0.00,,,0.00,WeatherCatV1.11B39,2013-01-19 12:00:00,
2013-01-19 07:05:00,31.4,21.0,30.22,SW,224,2.0,5.0,65,0.00,,,0.00,WeatherCatV1.11B39,2013-01-19 12:05:00,
2013-01-19 07:10:00,31.4,21.0,30.21,SW,228,2.0,6.0,65,0.00,,,0.00,WeatherCatV1.11B39,2013-01-19 12:10:00,
2013-01-19 07:15:00,31.7,20.9,30.22,WSW,255,2.0,7.0,64,0.00,,,0.00,WeatherCatV1.11B39,2013-01-19 12:15:00,
2013-01-19 07:20:00,31.8,21.0,30.22,SW,229,2.0,7.0,64,0.00,,,0.00,WeatherCatV1.11B39,2013-01-19 12:20:00,
2013-01-19 07:25:00,31.9,21.1,30.21,SW,214,2.0,5.0,64,0.00,,,0.00,WeatherCatV1.11B39,2013-01-19 12:25:00,
2013-01-19 07:30:00,32.1,21.3,30.21,SSW,201,3.0,6.0,64,0.00,,,0.00,WeatherCatV1.11B39,2013-01-19 12:30:00,
2013-01-19 07:35:00,32.2,21.4,30.21,SSW,213,2.0,3.0,64,0.00,,,0.00,WeatherCatV1.11B39,2013-01-19 12:35:00,
2013-01-19 07:40:00,32.4,21.6,30.21,SSW,211,2.0,6.0,64,0.00,,,0.00,WeatherCatV1.11B39,2013-01-19 12:40:00,
2013-01-19 07:50:00,32.6,21.8,30.20,SSW,210,2.0,3.0,64,0.00,,,0.00,WeatherCatV1.11B39,2013-01-19 12:50:00,
2013-01-19 07:55:00,33.0,21.8,30.20,SSE,156,1.0,6.0,63,0.00,,,0.00,WeatherCatV1.11B39,2013-01-19 12:55:00,
2013-01-19 08:00:00,33.2,22.0,30.20,SW,236,3.0,6.0,63,0.00,,,0.00,WeatherCatV1.11B39,2013-01-19 13:00:00,
2013-01-19 08:05:00,33.5,22.3,30.21,SW,231,6.0,9.0,63,0.00,,,0.00,WeatherCatV1.11B39,2013-01-19 13:05:00,
2013-01-19 08:10:00,33.8,22.2,30.21,West,260,3.0,9.0,62,0.00,,,0.00,WeatherCatV1.11B39,2013-01-19 13:10:00,
2013-01-19 08:15:00,34.0,22.4,30.20,SE,133,1.0,9.0,62,0.00,,,0.00,WeatherCatV1.11B39,2013-01-19 13:15:00,
2013-01-19 08:20:00,34.3,22.7,30.20,SW,218,2.0,3.0,62,0.00,,,0.00,WeatherCatV1.11B39,2013-01-19 13:20:00,
2013-01-19 08:25:00,34.5,22.8,30.20,South,177,3.0,6.0,62,0.00,,,0.00,WeatherCatV1.11B39,2013-01-19 13:25:00,
2013-01-19 08:30:00,34.8,23.1,30.20,SW,215,5.0,7.0,62,0.00,,,0.00,WeatherCatV1.11B39,2013-01-19 13:30:00,
2013-01-19 08:35:00,35.1,23.4,30.20,WSW,245,5.0,5.0,62,0.00,,,0.00,WeatherCatV1.11B39,2013-01-19 13:35:00,
2013-01-19 08:40:00,35.3,23.6,30.20,SW,224,0.0,4.0,62,0.00,,,0.00,WeatherCatV1.11B39,2013-01-19 13:40:00,
2013-01-19 08:45:00,35.6,23.9,30.20,WSW,245,3.0,7.0,62,0.00,,,0.00,WeatherCatV1.11B39,2013-01-19 13:45:00,
2013-01-19 08:46:00,35.6,23.9,30.20,SSW,211,1.0,7.0,62,0.00,,,0.00,WeatherCatV1.11B39,2013-01-19 13:46:00,
2013-01-19 08:51:00,35.9,24.2,30.20,ENE,70,2.0,7.0,62,0.00,,,0.00,WeatherCatV1.11B39,2013-01-19 13:51:00,
2013-01-19 08:56:00,36.3,24.5,30.20,SSW,198,2.0,6.0,62,0.00,,,0.00,WeatherCatV1.11B39,2013-01-19 13:56:00,
2013-01-19 09:01:00,36.7,24.5,30.20,North,357,2.0,8.0,61,0.00,,,0.00,WeatherCatV1.11B39,2013-01-19 14:01:00,
2013-01-19 09:06:00,37.4,24.8,30.19,SW,236,4.0,6.0,60,0.00,,,0.00,WeatherCatV1.11B39,2013-01-19 14:06:00,
2013-01-19 09:11:00,38.0,25.4,30.20,West,265,6.0,8.0,60,0.00,,,0.00,WeatherCatV1.11B39,2013-01-19 14:11:00,
2013-01-19 09:16:00,38.4,25.3,30.19,SW,224,6.0,11.0,59,0.00,,,0.00,WeatherCatV1.11B39,2013-01-19 14:16:00,
2013-01-19 09:21:00,38.7,25.2,30.19,SSW,197,4.0,11.0,58,0.00,,,0.00,WeatherCatV1.11B39,2013-01-19 14:21:00,
2013-01-19 09:26:00,39.2,25.7,30.19,SSW,211,5.0,9.0,58,0.00,,,0.00,WeatherCatV1.11B39,2013-01-19 14:26:00,
2013-01-19 09:31:00,39.5,25.5,30.19,SSE,154,4.0,13.0,57,0.00,,,0.00,WeatherCatV1.11B39,2013-01-19 14:31:00,
2013-01-19 09:36:00,39.6,26.1,30.18,NNE,25,6.0,6.0,58,0.00,,,0.00,WeatherCatV1.11B39,2013-01-19 14:36:00,
2013-01-19 09:41:00,39.9,25.9,30.18,WSW,242,7.0,10.0,57,0.00,,,0.00,WeatherCatV1.11B39,2013-01-19 14:41:00,
2013-01-19 09:46:00,40.1,26.1,30.18,West,278,0.0,3.0,57,0.00,,,0.00,WeatherCatV1.11B39,2013-01-19 14:46:00,
2013-01-19 09:51:00,40.4,26.4,30.18,West,264,3.0,4.0,57,0.00,,,0.00,WeatherCatV1.11B39,2013-01-19 14:51:00,
2013-01-19 09:56:00,40.3,25.9,30.17,ESE,122,3.0,10.0,56,0.00,,,0.00,WeatherCatV1.11B39,2013-01-19 14:56:00,
2013-01-19 10:01:00,40.2,26.2,30.17,SW,232,8.0,13.0,57,0.00,,,0.00,WeatherCatV1.11B39,2013-01-19 15:01:00,
2013-01-19 10:06:00,40.2,26.2,30.17,SW,214,1.0,9.0,57,0.00,,,0.00,WeatherCatV1.11B39,2013-01-19 15:06:00,
2013-01-19 10:11:00,40.3,26.3,30.17,SW,219,8.0,10.0,57,0.00,,,0.00,WeatherCatV1.11B39,2013-01-19 15:11:00,
2013-01-19 10:16:00,40.4,26.4,30.17,SW,236,1.0,8.0,57,0.00,,,0.00,WeatherCatV1.11B39,2013-01-19 15:16:00,
2013-01-19 10:21:00,40.5,26.5,30.17,West,262,5.0,12.0,57,0.00,,,0.00,WeatherCatV1.11B39,2013-01-19 15:21:00,
2013-01-19 10:26:00,40.6,26.1,30.17,SSW,204,4.0,9.0,56,0.00,,,0.00,WeatherCatV1.11B39,2013-01-19 15:26:00,
2013-01-19 10:31:00,40.6,26.1,30.16,SW,236,9.0,9.0,56,0.00,,,0.00,WeatherCatV1.11B39,2013-01-19 15:31:00,
2013-01-19 10:36:00,40.7,26.2,30.16,West,267,7.0,8.0,56,0.00,,,0.00,WeatherCatV1.11B39,2013-01-19 15:36:00,
2013-01-19 10:41:00,40.8,25.9,30.15,SSW,204,0.0,4.0,55,0.00,,,0.00,WeatherCatV1.11B39,2013-01-19 15:41:00,
2013-01-19 10:46:00,41.0,26.1,30.15,NNE,25,1.0,4.0,55,0.00,,,0.00,WeatherCatV1.11B39,2013-01-19 15:46:00,
2013-01-19 10:51:00,41.2,25.8,30.14,SW,229,3.0,10.0,54,0.00,,,0.00,WeatherCatV1.11B39,2013-01-19 15:51:00,
2013-01-19 10:56:00,41.3,25.9,30.14,SSW,194,9.0,14.0,54,0.00,,,0.00,WeatherCatV1.11B39,2013-01-19 15:56:00,
2013-01-19 11:01:00,41.5,25.7,30.13,West,270,2.0,8.0,53,0.00,,,0.01,WeatherCatV1.11B39,2013-01-19 16:01:00,
2013-01-19 11:06:00,41.6,25.8,30.13,North,6,2.0,4.0,53,0.00,,,0.01,WeatherCatV1.11B39,2013-01-19 16:06:00,
2013-01-19 11:11:00,41.7,25.4,30.12,SW,215,9.0,12.0,52,0.00,,,0.01,WeatherCatV1.11B39,2013-01-19 16:11:00,
2013-01-19 11:16:00,41.9,25.6,30.12,WSW,240,1.0,6.0,52,0.00,,,0.01,WeatherCatV1.11B39,2013-01-19 16:16:00,
2013-01-19 11:21:00,42.1,25.3,30.11,SW,217,3.0,8.0,51,0.00,,,0.01,WeatherCatV1.11B39,2013-01-19 16:21:00,
2013-01-19 11:26:00,42.3,25.9,30.11,South,183,0.0,7.0,52,0.00,,,0.01,WeatherCatV1.11B39,2013-01-19 16:26:00,
2013-01-19 11:31:00,42.4,25.6,30.10,SSW,212,0.0,6.0,51,0.00,,,0.01,WeatherCatV1.11B39,2013-01-19 16:31:00,
2013-01-19 11:36:00,42.6,24.8,30.10,SW,222,2.0,11.0,49,0.00,,,0.01,WeatherCatV1.11B39,2013-01-19 16:36:00,
2013-01-19 11:41:00,42.8,25.0,30.09,West,259,6.0,6.0,49,0.00,,,0.01,WeatherCatV1.11B39,2013-01-19 16:41:00,
2013-01-19 11:46:00,43.1,24.8,30.08,West,270,2.0,7.0,48,0.00,,,0.01,WeatherCatV1.11B39,2013-01-19 16:46:00,
2013-01-19 11:51:00,43.5,24.6,30.08,ESE,113,1.0,8.0,47,0.00,,,0.01,WeatherCatV1.11B39,2013-01-19 16:51:00,
2013-01-19 11:56:00,43.8,24.4,30.08,WSW,238,9.0,12.0,46,0.00,,,0.01,WeatherCatV1.11B39,2013-01-19 16:56:00,
2013-01-19 12:01:00,44.1,25.2,30.08,SW,222,2.0,4.0,47,0.00,,,0.01,WeatherCatV1.11B39,2013-01-19 17:01:00,
2013-01-19 12:06:00,44.4,24.9,30.08,West,276,4.0,10.0,46,0.00,,,0.01,WeatherCatV1.11B39,2013-01-19 17:06:00,
2013-01-19 12:11:00,44.7,24.7,30.07,South,172,6.0,8.0,45,0.00,,,0.01,WeatherCatV1.11B39,2013-01-19 17:11:00,
2013-01-19 12:16:00,45.0,25.0,30.07,SSW,203,3.0,10.0,45,0.00,,,0.01,WeatherCatV1.11B39,2013-01-19 17:16:00,
2013-01-19 12:21:00,45.4,24.8,30.07,NE,44,1.0,6.0,44,0.00,,,0.01,WeatherCatV1.11B39,2013-01-19 17:21:00,
2013-01-19 12:26:00,45.7,25.0,30.06,SSE,150,3.0,10.0,44,0.00,,,0.01,WeatherCatV1.11B39,2013-01-19 17:26:00,
2013-01-19 12:31:00,45.8,24.6,30.06,SSE,167,5.0,6.0,43,0.00,,,0.01,WeatherCatV1.11B39,2013-01-19 17:31:00,
2013-01-19 12:36:00,45.8,24.6,30.06,South,174,2.0,3.0,43,0.00,,,0.01,WeatherCatV1.11B39,2013-01-19 17:36:00,
2013-01-19 12:41:00,45.9,24.7,30.06,SW,232,8.0,8.0,43,0.00,,,0.01,WeatherCatV1.11B39,2013-01-19 17:41:00,
2013-01-19 12:46:00,46.0,24.2,30.06,NW,319,2.0,11.0,42,0.00,,,0.01,WeatherCatV1.11B39,2013-01-19 17:46:00,
2013-01-19 12:51:00,46.0,24.2,30.05,West,273,1.0,8.0,42,0.00,,,0.01,WeatherCatV1.11B39,2013-01-19 17:51:00,
2013-01-19 12:56:00,46.1,24.3,30.05,SSW,211,3.0,8.0,42,0.00,,,0.01,WeatherCatV1.11B39,2013-01-19 17:56:00,
2013-01-19 13:01:00,46.3,24.5,30.05,SW,221,5.0,7.0,42,0.00,,,0.01,WeatherCatV1.11B39,2013-01-19 18:01:00,
2013-01-19 13:06:00,46.4,24.6,30.05,South,186,3.0,9.0,42,0.00,,,0.01,WeatherCatV1.11B39,2013-01-19 18:06:00,
2013-01-19 13:11:00,46.5,24.1,30.04,WNW,295,1.0,14.0,41,0.00,,,0.01,WeatherCatV1.11B39,2013-01-19 18:11:00,
2013-01-19 13:16:00,46.7,24.8,30.04,South,174,2.0,5.0,42,0.00,,,0.01,WeatherCatV1.11B39,2013-01-19 18:16:00,
2013-01-19 13:21:00,46.7,24.3,30.04,SSW,205,1.0,5.0,41,0.00,,,0.01,WeatherCatV1.11B39,2013-01-19 18:21:00,
2013-01-19 13:26:00,46.7,24.3,30.04,SSE,149,3.0,9.0,41,0.00,,,0.01,WeatherCatV1.11B39,2013-01-19 18:26:00,
2013-01-19 13:31:00,46.9,24.4,30.04,West,259,2.0,5.0,41,0.00,,,0.01,WeatherCatV1.11B39,2013-01-19 18:31:00,
2013-01-19 13:36:00,47.2,24.1,30.03,SW,217,3.0,10.0,40,0.00,,,0.01,WeatherCatV1.11B39,2013-01-19 18:36:00,
2013-01-19 13:41:00,47.4,24.3,30.03,SSW,208,8.0,17.0,40,0.00,,,0.01,WeatherCatV1.11B39,2013-01-19 18:41:00,
2013-01-19 13:46:00,47.6,25.1,30.03,SW,215,3.0,8.0,41,0.00,,,0.01,WeatherCatV1.11B39,2013-01-19 18:46:00,
2013-01-19 13:51:00,48.0,24.8,30.03,North,356,1.0,11.0,40,0.00,,,0.01,WeatherCatV1.11B39,2013-01-19 18:51:00,
2013-01-19 13:56:00,48.2,25.0,30.03,SW,214,7.0,10.0,40,0.00,,,0.01,WeatherCatV1.11B39,2013-01-19 18:56:00,
2013-01-19 14:01:00,48.2,24.4,30.02,WSW,240,13.0,13.0,39,0.00,,,0.01,WeatherCatV1.11B39,2013-01-19 19:01:00,
2013-01-19 14:06:00,48.2,24.4,30.02,SSE,159,7.0,13.0,39,0.00,,,0.01,WeatherCatV1.11B39,2013-01-19 19:06:00,
2013-01-19 14:11:00,48.3,25.1,30.02,SSE,153,4.0,5.0,40,0.00,,,0.01,WeatherCatV1.11B39,2013-01-19 19:11:00,
2013-01-19 14:16:00,48.7,24.9,30.02,SSW,209,5.0,11.0,39,0.00,,,0.01,WeatherCatV1.11B39,2013-01-19 19:16:00,
2013-01-19 14:21:00,48.9,24.4,30.02,SW,221,3.0,6.0,38,0.00,,,0.01,WeatherCatV1.11B39,2013-01-19 19:21:00,
2013-01-19 14:26:00,49.0,24.5,30.02,SW,223,5.0,8.0,38,0.00,,,0.01,WeatherCatV1.11B39,2013-01-19 19:26:00,
2013-01-19 14:31:00,49.0,24.5,30.02,ESE,106,1.0,3.0,38,0.00,,,0.01,WeatherCatV1.11B39,2013-01-19 19:31:00,
2013-01-19 14:36:00,49.3,24.1,30.02,SW,222,3.0,7.0,37,0.00,,,0.01,WeatherCatV1.11B39,2013-01-19 19:36:00,
2013-01-19 14:41:00,49.6,24.4,30.02,WSW,246,4.0,9.0,37,0.00,,,0.01,WeatherCatV1.11B39,2013-01-19 19:41:00,
2013-01-19 14:46:00,49.6,24.4,30.02,SW,215,6.0,10.0,37,0.00,,,0.01,WeatherCatV1.11B39,2013-01-19 19:46:00,
2013-01-19 14:51:00,49.6,24.4,30.02,SSW,200,1.0,4.0,37,0.00,,,0.01,WeatherCatV1.11B39,2013-01-19 19:51:00,
2013-01-19 14:56:00,49.5,23.7,30.02,SW,219,12.0,12.0,36,0.00,,,0.01,WeatherCatV1.11B39,2013-01-19 19:56:00,
2013-01-19 15:01:00,49.4,23.6,30.01,SW,214,2.0,10.0,36,0.00,,,0.01,WeatherCatV1.11B39,2013-01-19 20:01:00,
2013-01-19 15:06:00,49.5,23.7,30.01,WSW,241,7.0,14.0,36,0.00,,,0.01,WeatherCatV1.11B39,2013-01-19 20:06:00,
2013-01-19 15:11:00,49.3,23.5,30.01,SSW,193,7.0,13.0,36,0.00,,,0.01,WeatherCatV1.11B39,2013-01-19 20:11:00,
2013-01-19 15:16:00,49.2,23.4,30.01,SSW,204,9.0,9.0,36,0.00,,,0.01,WeatherCatV1.11B39,2013-01-19 20:16:00,
2013-01-19 15:21:00,49.2,23.4,30.01,SW,217,10.0,11.0,36,0.00,,,0.01,WeatherCatV1.11B39,2013-01-19 20:21:00,
2013-01-19 15:26:00,49.1,24.0,30.01,SSW,207,1.0,6.0,37,0.00,,,0.01,WeatherCatV1.11B39,2013-01-19 20:26:00,
2013-01-19 15:31:00,48.9,23.8,30.01,SSW,205,2.0,6.0,37,0.00,,,0.01,WeatherCatV1.11B39,2013-01-19 20:31:00,
2013-01-19 15:36:00,48.8,23.7,30.01,WSW,240,7.0,12.0,37,0.00,,,0.01,WeatherCatV1.11B39,2013-01-19 20:36:00,
2013-01-19 15:41:00,48.6,24.2,30.01,South,180,4.0,4.0,38,0.00,,,0.01,WeatherCatV1.11B39,2013-01-19 20:41:00,
2013-01-19 15:46:00,48.3,23.9,30.01,North,358,1.0,10.0,38,0.00,,,0.01,WeatherCatV1.11B39,2013-01-19 20:46:00,
2013-01-19 15:51:00,48.0,24.2,30.01,SW,235,2.0,2.0,39,0.00,,,0.01,WeatherCatV1.11B39,2013-01-19 20:51:00,
2013-01-19 15:56:00,47.7,24.0,30.01,SSW,200,5.0,6.0,39,0.00,,,0.01,WeatherCatV1.11B39,2013-01-19 20:56:00,
2013-01-19 16:01:00,47.3,23.6,30.02,WSW,252,1.0,6.0,39,0.00,,,0.01,WeatherCatV1.11B39,2013-01-19 21:01:00,
2013-01-19 16:06:00,47.0,23.9,30.02,ESE,111,0.0,7.0,40,0.00,,,0.01,WeatherCatV1.11B39,2013-01-19 21:06:00,
2013-01-19 16:11:00,46.7,24.3,30.02,WSW,246,11.0,11.0,41,0.00,,,0.01,WeatherCatV1.11B39,2013-01-19 21:11:00,
2013-01-19 16:16:00,46.4,24.0,30.02,SSW,204,3.0,11.0,41,0.00,,,0.01,WeatherCatV1.11B39,2013-01-19 21:16:00,
2013-01-19 16:21:00,46.1,24.3,30.02,SSE,153,4.0,6.0,42,0.00,,,0.01,WeatherCatV1.11B39,2013-01-19 21:21:00,
2013-01-19 16:26:00,45.9,24.1,30.02,SSE,155,5.0,5.0,42,0.00,,,0.01,WeatherCatV1.11B39,2013-01-19 21:26:00,
2013-01-19 16:31:00,45.8,24.0,30.02,SSW,194,3.0,7.0,42,0.00,,,0.01,WeatherCatV1.11B39,2013-01-19 21:31:00,
2013-01-19 16:36:00,45.5,24.3,30.02,WSW,242,7.0,7.0,43,0.00,,,0.01,WeatherCatV1.11B39,2013-01-19 21:36:00,
2013-01-19 16:41:00,45.3,24.1,30.02,SW,225,6.0,7.0,43,0.00,,,0.01,WeatherCatV1.11B39,2013-01-19 21:41:00,
2013-01-19 16:46:00,45.2,24.0,30.02,NNW,329,0.0,6.0,43,0.00,,,0.01,WeatherCatV1.11B39,2013-01-19 21:46:00,
2013-01-19 16:51:00,45.0,24.4,30.02,SW,217,0.0,3.0,44,0.00,,,0.01,WeatherCatV1.11B39,2013-01-19 21:51:00,
2013-01-19 16:56:00,44.7,24.1,30.02,SSW,207,5.0,6.0,44,0.00,,,0.01,WeatherCatV1.11B39,2013-01-19 21:56:00,
2013-01-19 17:01:00,44.5,24.5,30.02,SSW,207,2.0,6.0,45,0.00,,,0.01,WeatherCatV1.11B39,2013-01-19 22:01:00,
2013-01-19 17:07:00,44.4,24.4,30.02,SSW,210,0.0,5.0,45,0.00,,,0.01,WeatherCatV1.11B39,2013-01-19 22:07:00,
2013-01-19 17:12:00,44.3,24.3,30.02,SSE,163,2.0,10.0,45,0.00,,,0.01,WeatherCatV1.11B39,2013-01-19 22:12:00,
2013-01-19 17:17:00,44.2,24.7,30.02,SSW,202,2.0,3.0,46,0.00,,,0.01,WeatherCatV1.11B39,2013-01-19 22:17:00,
2013-01-19 17:22:00,44.0,24.6,30.02,NNW,330,1.0,4.0,46,0.00,,,0.01,WeatherCatV1.11B39,2013-01-19 22:22:00,
2013-01-19 17:27:00,43.8,24.9,30.02,SSW,212,6.0,6.0,47,0.00,,,0.01,WeatherCatV1.11B39,2013-01-19 22:27:00,
2013-01-19 17:31:00,43.8,24.4,30.02,SSW,213,5.0,7.0,46,0.00,,,0.01,WeatherCatV1.11B39,2013-01-19 22:31:00,
2013-01-19 17:36:00,43.8,24.9,30.02,SW,215,0.0,3.0,47,0.00,,,0.01,WeatherCatV1.11B39,2013-01-19 22:36:00,
2013-01-19 17:42:00,43.7,24.8,30.02,West,269,0.0,5.0,47,0.00,,,0.01,WeatherCatV1.11B39,2013-01-19 22:42:00,
2013-01-19 17:46:00,43.5,24.6,30.02,SSW,205,0.0,2.0,47,0.00,,,0.01,WeatherCatV1.11B39,2013-01-19 22:46:00,
2013-01-19 17:51:00,43.3,24.9,30.02,SW,217,1.0,4.0,48,0.00,,,0.01,WeatherCatV1.11B39,2013-01-19 22:51:00,
2013-01-19 17:57:00,43.1,24.8,30.02,WSW,246,0.0,3.0,48,0.00,,,0.01,WeatherCatV1.11B39,2013-01-19 22:57:00,
2013-01-19 18:02:00,43.0,25.2,30.02,SSW,209,0.0,2.0,49,0.00,,,0.01,WeatherCatV1.11B39,2013-01-19 23:02:00,
2013-01-19 18:07:00,42.9,25.1,30.02,SW,231,0.0,4.0,49,0.00,,,0.01,WeatherCatV1.11B39,2013-01-19 23:07:00,
2013-01-19 18:12:00,42.7,24.9,30.02,SSW,209,1.0,3.0,49,0.00,,,0.01,WeatherCatV1.11B39,2013-01-19 23:12:00,
2013-01-19 18:17:00,42.5,25.2,30.02,SW,228,3.0,5.0,50,0.00,,,0.01,WeatherCatV1.11B39,2013-01-19 23:17:00,
2013-01-19 18:22:00,42.6,25.3,30.02,WSW,240,1.0,3.0,50,0.00,,,0.01,WeatherCatV1.11B39,2013-01-19 23:22:00,
2013-01-19 18:27:00,42.4,25.1,30.02,WSW,239,0.0,0.0,50,0.00,,,0.01,WeatherCatV1.11B39,2013-01-19 23:27:00,
2013-01-19 18:32:00,42.2,25.4,30.02,SW,233,0.0,1.0,51,0.00,,,0.01,WeatherCatV1.11B39,2013-01-19 23:32:00,
2013-01-19 18:37:00,41.9,25.1,30.02,SSW,194,0.0,1.0,51,0.00,,,0.01,WeatherCatV1.11B39,2013-01-19 23:37:00,
2013-01-19 18:42:00,41.7,25.4,30.02,WSW,239,0.0,2.0,52,0.00,,,0.01,WeatherCatV1.11B39,2013-01-19 23:42:00,
2013-01-19 18:47:00,41.5,25.2,30.02,SSE,160,0.0,1.0,52,0.00,,,0.01,WeatherCatV1.11B39,2013-01-19 23:47:00,
2013-01-19 18:52:00,41.2,25.4,30.02,South,191,0.0,2.0,53,0.00,,,0.01,WeatherCatV1.11B39,2013-01-19 23:52:00,
2013-01-19 18:57:00,40.9,25.6,30.02,NE,41,0.0,1.0,54,0.00,,,0.01,WeatherCatV1.11B39,2013-01-19 23:57:00,
2013-01-19 19:02:00,40.7,25.8,30.02,WSW,249,0.0,1.0,55,0.00,,,0.01,WeatherCatV1.11B39,2013-01-20 00:02:00,
2013-01-19 19:07:00,40.7,26.2,30.02,SE,141,3.0,4.0,56,0.00,,,0.01,WeatherCatV1.11B39,2013-01-20 00:07:00,
2013-01-19 19:12:00,40.8,26.3,30.02,West,260,0.0,0.0,56,0.00,,,0.01,WeatherCatV1.11B39,2013-01-20 00:12:00,
2013-01-19 19:17:00,40.7,26.7,30.02,South,186,3.0,3.0,57,0.00,,,0.01,WeatherCatV1.11B39,2013-01-20 00:17:00,
2013-01-19 19:22:00,40.6,26.6,30.02,NW,326,2.0,2.0,57,0.00,,,0.01,WeatherCatV1.11B39,2013-01-20 00:22:00,
2013-01-19 19:27:00,40.7,27.1,30.02,SSW,212,0.0,1.0,58,0.00,,,0.01,WeatherCatV1.11B39,2013-01-20 00:27:00,
2013-01-19 19:32:00,40.7,27.5,30.02,SW,228,1.0,3.0,59,0.00,,,0.01,WeatherCatV1.11B39,2013-01-20 00:32:00,
2013-01-19 19:37:00,40.7,27.5,30.02,SW,226,0.0,0.0,59,0.00,,,0.01,WeatherCatV1.11B39,2013-01-20 00:37:00,
2013-01-19 19:42:00,40.3,27.5,30.01,North,354,0.0,0.0,60,0.00,,,0.01,WeatherCatV1.11B39,2013-01-20 00:42:00,
2013-01-19 19:47:00,40.2,27.8,30.01,SW,222,1.0,2.0,61,0.00,,,0.01,WeatherCatV1.11B39,2013-01-20 00:47:00,
2013-01-19 19:52:00,40.2,28.2,30.01,WSW,242,0.0,3.0,62,0.00,,,0.01,WeatherCatV1.11B39,2013-01-20 00:52:00,
2013-01-19 19:57:00,40.1,28.1,30.01,NW,321,0.0,3.0,62,0.00,,,0.01,WeatherCatV1.11B39,2013-01-20 00:57:00,
2013-01-19 20:02:00,40.1,28.5,30.01,SE,139,2.0,5.0,63,0.00,,,0.01,WeatherCatV1.11B39,2013-01-20 01:02:00,
2013-01-19 20:07:00,40.1,28.5,30.01,WSW,257,0.0,2.0,63,0.00,,,0.01,WeatherCatV1.11B39,2013-01-20 01:07:00,
2013-01-19 20:12:00,40.1,28.9,30.01,West,264,3.0,4.0,64,0.00,,,0.01,WeatherCatV1.11B39,2013-01-20 01:12:00,
2013-01-19 20:17:00,40.1,28.9,30.01,South,191,0.0,2.0,64,0.00,,,0.01,WeatherCatV1.11B39,2013-01-20 01:17:00,
2013-01-19 20:22:00,39.9,29.1,30.00,SW,219,0.0,0.0,65,0.00,,,0.01,WeatherCatV1.11B39,2013-01-20 01:22:00,
2013-01-19 20:27:00,39.7,28.9,30.00,SSW,203,0.0,1.0,65,0.00,,,0.01,WeatherCatV1.11B39,2013-01-20 01:27:00,
2013-01-19 20:32:00,39.5,29.1,30.00,WSW,238,1.0,1.0,66,0.00,,,0.01,WeatherCatV1.11B39,2013-01-20 01:32:00,
2013-01-19 20:37:00,39.5,29.1,30.00,SW,224,0.0,1.0,66,0.00,,,0.01,WeatherCatV1.11B39,2013-01-20 01:37:00,
2013-01-19 20:42:00,39.3,29.3,30.00,SW,222,0.0,1.0,67,0.00,,,0.01,WeatherCatV1.11B39,2013-01-20 01:42:00,
2013-01-19 20:47:00,39.0,29.3,30.00,SSW,207,0.0,3.0,68,0.00,,,0.01,WeatherCatV1.11B39,2013-01-20 01:47:00,
2013-01-19 20:52:00,38.8,29.2,30.00,West,275,0.0,1.0,68,0.00,,,0.01,WeatherCatV1.11B39,2013-01-20 01:52:00,
2013-01-19 20:57:00,38.7,29.4,30.00,WNW,290,0.0,0.0,69,0.00,,,0.01,WeatherCatV1.11B39,2013-01-20 01:57:00,
2013-01-19 21:02:00,38.7,29.4,29.99,SW,226,0.0,2.0,69,0.00,,,0.01,WeatherCatV1.11B39,2013-01-20 02:02:00,
2013-01-19 21:07:00,38.7,29.8,29.99,WSW,246,0.0,1.0,70,0.00,,,0.01,WeatherCatV1.11B39,2013-01-20 02:07:00,
2013-01-19 21:12:00,38.6,29.7,29.99,SW,228,0.0,1.0,70,0.00,,,0.01,WeatherCatV1.11B39,2013-01-20 02:12:00,
2013-01-19 21:17:00,38.5,29.6,29.99,WSW,238,0.0,1.0,70,0.00,,,0.01,WeatherCatV1.11B39,2013-01-20 02:17:00,
2013-01-19 21:22:00,38.5,29.9,29.99,SW,236,0.0,1.0,71,0.00,,,0.01,WeatherCatV1.11B39,2013-01-20 02:22:00,
2013-01-19 21:27:00,38.4,29.8,29.98,SW,224,0.0,1.0,71,0.00,,,0.01,WeatherCatV1.11B39,2013-01-20 02:27:00,
2013-01-19 21:32:00,38.3,29.7,29.98,SW,224,0.0,0.0,71,0.00,,,0.01,WeatherCatV1.11B39,2013-01-20 02:32:00,
2013-01-19 21:37:00,38.1,29.9,29.98,South,181,0.0,1.0,72,0.00,,,0.01,WeatherCatV1.11B39,2013-01-20 02:37:00,
2013-01-19 21:42:00,38.0,29.8,29.98,South,180,0.0,0.0,72,0.00,,,0.01,WeatherCatV1.11B39,2013-01-20 02:42:00,
2013-01-19 21:47:00,38.0,30.1,29.98,South,172,0.0,0.0,73,0.00,,,0.01,WeatherCatV1.11B39,2013-01-20 02:47:00,
2013-01-19 21:52:00,37.9,30.0,29.98,South,172,0.0,0.0,73,0.00,,,0.01,WeatherCatV1.11B39,2013-01-20 02:52:00,
2013-01-19 21:57:00,37.8,29.9,29.97,South,172,0.0,0.0,73,0.00,,,0.01,WeatherCatV1.11B39,2013-01-20 02:57:00,
2013-01-19 22:02:00,37.6,29.7,29.97,South,172,0.0,0.0,73,0.00,,,0.01,WeatherCatV1.11B39,2013-01-20 03:02:00,
2013-01-19 22:07:00,37.3,29.8,29.97,South,172,0.0,0.0,74,0.00,,,0.01,WeatherCatV1.11B39,2013-01-20 03:07:00,
2013-01-19 22:12:00,37.1,29.9,29.97,South,172,0.0,0.0,75,0.00,,,0.01,WeatherCatV1.11B39,2013-01-20 03:12:00,
2013-01-19 22:17:00,36.9,29.7,29.96,South,172,0.0,0.0,75,0.00,,,0.01,WeatherCatV1.11B39,2013-01-20 03:17:00,
2013-01-19 22:22:00,36.6,29.8,29.96,South,172,0.0,0.0,76,0.00,,,0.01,WeatherCatV1.11B39,2013-01-20 03:22:00,
2013-01-19 22:27:00,36.5,30.0,29.96,South,172,0.0,0.0,77,0.00,,,0.01,WeatherCatV1.11B39,2013-01-20 03:27:00,
2013-01-19 22:32:00,36.4,29.9,29.95,South,172,0.0,0.0,77,0.00,,,0.01,WeatherCatV1.11B39,2013-01-20 03:32:00,
2013-01-19 22:37:00,36.4,30.2,29.95,SSE,152,0.0,1.0,78,0.00,,,0.01,WeatherCatV1.11B39,2013-01-20 03:37:00,
2013-01-19 22:42:00,36.5,30.3,29.95,SSE,155,0.0,1.0,78,0.00,,,0.01,WeatherCatV1.11B39,2013-01-20 03:42:00,
2013-01-19 22:47:00,36.7,30.5,29.95,SSE,155,0.0,0.0,78,0.00,,,0.01,WeatherCatV1.11B39,2013-01-20 03:47:00,
2013-01-19 22:52:00,36.9,30.7,29.94,SSE,155,0.0,0.0,78,0.00,,,0.01,WeatherCatV1.11B39,2013-01-20 03:52:00,
2013-01-19 22:57:00,37.6,31.1,29.94,SSE,166,0.0,2.0,77,0.00,,,0.01,WeatherCatV1.11B39,2013-01-20 03:57:00,
2013-01-19 23:02:00,38.0,31.1,29.94,SSE,166,0.0,0.0,76,0.00,,,0.01,WeatherCatV1.11B39,2013-01-20 04:02:00,
2013-01-19 23:07:00,38.1,31.2,29.93,SSW,207,0.0,1.0,76,0.00,,,0.01,WeatherCatV1.11B39,2013-01-20 04:07:00,
2013-01-19 23:12:00,38.2,31.3,29.93,SSE,153,0.0,2.0,76,0.00,,,0.01,WeatherCatV1.11B39,2013-01-20 04:12:00,
2013-01-19 23:17:00,38.4,31.5,29.93,SSW,201,0.0,0.0,76,0.00,,,0.01,WeatherCatV1.11B39,2013-01-20 04:17:00,
2013-01-19 23:22:00,38.5,31.3,29.92,SSW,197,0.0,0.0,75,0.00,,,0.01,WeatherCatV1.11B39,2013-01-20 04:22:00,
2013-01-19 23:27:00,38.7,31.5,29.92,SSW,209,2.0,3.0,75,0.00,,,0.01,WeatherCatV1.11B39,2013-01-20 04:27:00,
2013-01-19 23:32:00,39.1,31.9,29.92,SW,228,1.0,2.0,75,0.00,,,0.01,WeatherCatV1.11B39,2013-01-20 04:32:00,
2013-01-19 23:37:00,39.3,31.7,29.91,SSW,209,1.0,3.0,74,0.00,,,0.01,WeatherCatV1.11B39,2013-01-20 04:37:00,
2013-01-19 23:42:00,39.5,31.9,29.91,North,356,1.0,1.0,74,0.00,,,0.01,WeatherCatV1.11B39,2013-01-20 04:42:00,
2013-01-19 23:47:00,39.6,32.0,29.91,SSW,207,0.0,1.0,74,0.00,,,0.01,WeatherCatV1.11B39,2013-01-20 04:47:00,
2013-01-19 23:52:00,39.7,31.8,29.91,SSE,153,1.0,2.0,73,0.00,,,0.01,WeatherCatV1.11B39,2013-01-20 04:52:00,
2013-01-19 23:57:00,40.0,32.1,29.91,WSW,246,0.0,3.0,73,0.00,,,0.01,WeatherCatV1.11B39,2013-01-20 04:57:00,